Tracking 30995 objects as of 7-Jul-2025
HD Live streaming from Space Station
objects crossing your sky now

ONEWEB-0323

Track ONEWEB-0323 now!
10-day predictions
ONEWEB-0323 is classified as:


NORAD ID: 49106
Int'l Code: 2021-075AH
Perigee: 1,220.0 km
Apogee: 1,221.7 km
Inclination: 87.9 °
Period: 109.7 minutes
Semi major axis: 7591 km
RCS: Unknown
Launch date: August 21, 2021
Source: United Kingdom (UK)
Launch site: TYURATAM MISSILE AND SPACE COMPLEX (TTMTR)
Your satellite tracking list
Your tracking list is empty




NASA's NSSDC Master Catalog

Two Line Element Set (TLE):
1 49106U 21075AH  25187.61009847 -.00000196  00000-0 -58155-3 0  9998
2 49106  87.8862  59.3673 0001132  68.6775 291.4475 13.12444671189227
Source of the keplerian elements: AFSPC